This is the latest recevied weather packets stored in our database for station/object ED1ZAI-13. If no packets are shown the sender has not sent any weather packets the latest 10 day(s).
| Time | Temp. | Humidity | Pressure | Rain* | Wind** | Luminosity | Snow |
|---|---|---|---|---|---|---|---|
| 1777675498 | 13.89° C | 71% | 1019.7 hPa | 0 mm | - | - | - |
| 1777674899 | 13.89° C | 71% | 1019.7 hPa | 0 mm | - | - | - |
| 1777674300 | 13.89° C | 72% | 1019.7 hPa | 0 mm | - | - | - |
| 1777673698 | 13.33° C | 72% | 1019.8 hPa | 0 mm | - | - | - |
| 1777673098 | 13.33° C | 73% | 1019.9 hPa | 0 mm | - | - | - |
| 1777669499 | 13.89° C | 71% | 1020 hPa | 0 mm | - | - | - |
| 1777668898 | 13.89° C | 71% | 1020 hPa | 0 mm | - | - | - |
| 1777668298 | 13.89° C | 70% | 1019.8 hPa | 0 mm | - | - | - |
| 1777667698 | 14.44° C | 70% | 1019.7 hPa | 0 mm | - | - | - |
| 1777667099 | 14.44° C | 70% | 1019.9 hPa | 0 mm | - | - | - |
| 1777666499 | 14.44° C | 70% | 1019.8 hPa | 0 mm | - | - | - |
| 1777665899 | 14.44° C | 69% | 1019.6 hPa | 0 mm | - | - | - |
| 1777665298 | 14.44° C | 68% | 1019.5 hPa | 0 mm | - | - | - |
| 1777664698 | 14.44° C | 67% | 1019.4 hPa | 0 mm | - | - | - |
| 1777664098 | 14.44° C | 66% | 1019.2 hPa | 0 mm | - | - | - |
| 1777663498 | 15° C | 65% | 1019.2 hPa | 0 mm | - | - | - |
| 1777662899 | 15° C | 64% | 1019.1 hPa | 0 mm | - | - | - |
| 1777662299 | 15.56° C | 63% | 1019 hPa | 0 mm | - | - | - |
| 1777661699 | 15.56° C | 63% | 1019 hPa | 0 mm | - | - | - |
| 1777661098 | 15.56° C | 62% | 1018.8 hPa | 0 mm | - | - | - |
| 1777660498 | 16.11° C | 62% | 1018.4 hPa | 0 mm | - | - | - |
| 1777659898 | 17.22° C | 63% | 1018.3 hPa | 0 mm | - | - | - |
| 1777659298 | 16.67° C | 64% | 1018.2 hPa | 0 mm | - | - | - |
| 1777658699 | 16.67° C | 61% | 1018.1 hPa | 0 mm | - | - | - |
| 1777658099 | 16.67° C | 61% | 1018.1 hPa | 0 mm | - | - | - |
* Rain latest hour (hover to see other rain measurements)
** Current wind speed in m/s (hover to see current wind gust speed)